Regional Weather Roundup
Issued by NWS

Home | Current Version | Previous Version | Text Only | Print | Product List | Glossary Off
Versions: 1 2 3 4 5 6 7 8 9 10 11 12 13 14 15 16 17 18 19 20 21 22 23 24 25 26 27 28 29 30 31 32 33 34 35 36 37 38 39 40 41 42 43 44 45 46 47 48 49 50

000
ASUS45 KSLC 181510
RWRUT

UTAH REGIONAL WEATHER ROUNDUP
NATIONAL WEATHER SERVICE SALT LAKE CITY UT
800 AM MST SAT FEB 18 2017

UTZ001>011-023>025-181600-

NORTHERN UTAH

CITY           SKY/WX    TMP DP  RH WIND       PRES   REMARKS
BRIGHAM CITY     N/A     47  33  58 S7        29.65S
HILL AFB       CLOUDY    46  33  61 S14       29.65S
LOGAN          CLOUDY    37  33  85 NW7       29.66R WCI  32
OGDEN          CLOUDY    46  34  62 S16       29.64S
SALT LAKE CITY CLOUDY    46  35  65 SE5       29.64S
TOOELE VALLEY  CLOUDY    45  34  65 S7        29.64S
WENDOVER       CLOUDY    36  32  87 W5        29.62R WCI  32
HEBER CITY     CLOUDY    39  32  75 CALM      29.69S
WEST JORDAN    CLOUDY    47  42  82 SW8       29.66R

$$

UTZ011>015-024>027-181600-

CENTRAL/NORTHEAST UTAH

CITY           SKY/WX    TMP DP  RH WIND       PRES   REMARKS
PROVO AIRPORT  CLOUDY    46  35  65 SE18      29.68R
MOAB/CANYONLAN LGT RAIN  48  38  68 S5        29.76R
DELTA          CLOUDY    41  32  70 CALM      29.66S
PRICE          LGT RAIN  39  36  89 E7        29.78R WCI  34
RICHFIELD      MOCLDY    43  30  61 N5        29.70S
ROOSEVELT      CLOUDY    36  34  93 CALM      29.80R
VERNAL         CLOUDY    36  34  92 W5        29.78R WCI  32

$$

UTZ013>016-019>022-027-181600-

SOUTHERN UTAH

CITY           SKY/WX    TMP DP  RH WIND       PRES   REMARKS
BRYCE CANYON   SNOW      32  30  92 SE20      29.74R VSB<1/4 WCI  20
CEDAR CITY     LGT RAIN  43  31  62 S20G31    29.64R
MILFORD        CLOUDY    43  33  68 SW9       29.63S
ST GEORGE      CLOUDY    51  41  68 NE6       29.63S
HANKSVILLE     CLOUDY    45  32  61 SE10      29.77R
KANAB          CLOUDY    45  37  76 E12       29.74S
BLANDING       CLOUDY    39  37  93 CALM      29.90R

$$

REGIONAL REPORTS     COLORADO/ARIZONA

CITY           SKY/WX    TMP DP  RH WIND       PRES   REMARKS
CRAIG, CO      CLOUDY    39  31  72 E5        29.81R
GRAND JUNCTION CLOUDY    43  38  82 SE10      29.80S
RIFLE, CO      CLOUDY    37  36  96 CALM      29.84R
MONTROSE, CO   CLOUDY    36  33  89 SE8       29.86S WCI  30
CORTEZ, CO     CLOUDY    34  33  96 S3        29.84R
COLORADO CITY  CLOUDY    46  36  66 SE8       29.70S
PAGE, AZ       CLOUDY    47  35  63 E7        29.72R
GRAND CANYON   CLOUDY    38  31  76 CALM      29.73R
KINGMAN, AZ    CLOUDY    49  41  74 E18       29.58S
FLAGSTAFF, AZ  CLOUDY    35  34  96 CALM      29.74S

$$

REGIONAL REPORTS    NEVADA/IDAHO/WYOMING

CITY           SKY/WX    TMP DP  RH WIND       PRES   REMARKS
LAS VEGAS, NV  LGT RAIN  51  48  89 E7        29.54R
ELY, NY        CLOUDY    35  31  85 S18G28    29.59R WCI  24
ELKO, NV       CLOUDY    41  31  67 S6        29.53S
POCATELLO, ID  CLOUDY    46  32  58 SW12G20   29.60S
BURLEY, ID     CLOUDY    43  32  65 E5        29.55S
FORT BRIDGER,  PTSUNNY   28  28 100 CALM      29.75R
EVANSTON, WY   LGT SNOW  33  24  69 E7        29.72R WCI  27
ROCK SPRINGS,  CLOUDY    38  30  73 S18       29.72S WCI  28
KEMMERER, WY     N/A     30  27  86 N6        29.74R WCI  24

$$



USA.gov is the U.S. government's official web portal to all federal, state and local government web resources and services.